Theta_e
323 324 324 325 328 329 328 330 335 340 341 343 346 343 344 344 344 342 340 339 339 334 335 335 335 335 334 334 332 331 330 330 329 328 328 327 327 328 328 328 328 329 329
322 323 324 327 328 328 329 332 335 341 344 344 344 344 341 340 338 336 336 335 334 335 335 336 334 333 333 332 331 330 329 329 328 327 326 327 326 327 326 326 328 328 328
323 323 323 323 324 331 335 336 339 345 347 346 344 344 341 337 336 335 335 335 334 336 335 334 333 332 331 330 329 329 329 328 327 327 325 326 325 324 326 327 327 328 327
321 322 322 321 331 335 342 346 347 348 348 347 345 342 337 335 335 334 333 336 336 335 334 333 331 330 329 330 330 329 329 328 326 326 326 325 325 324 323 326 328 328 327
321 321 319 325 335 341 347 349 349 349 347 347 345 343 338 337 337 335 334 335 334 334 333 331 330 330 330 329 329 329 329 328 327 326 326 326 325 326 322 322 324 327 328
319 319 330 337 338 342 349 349 349 348 347 346 344 342 338 335 335 335 335 335 334 333 332 332 331 328 328 329 329 329 329 328 328 327 327 326 324 324 323 322 321 322 327
330 336 337 338 340 343 345 345 346 344 343 340 338 335 335 335 335 334 335 334 333 333 333 332 331 329 329 330 329 330 329 328 328 328 327 327 326 324 323 324 322 322 327
335 336 337 338 341 342 342 340 340 339 338 335 335 334 334 334 334 333 333 333 333 332 331 331 329 328 330 331 331 330 328 328 328 328 328 327 327 326 322 323 324 324 326
336 337 338 339 339 338 339 338 338 336 335 335 334 333 333 333 332 332 332 332 331 332 328 329 330 331 332 331 332 330 329 328 328 327 327 328 327 327 324 324 326 325 326
336 337 338 338 337 337 338 336 337 334 335 334 334 333 334 333 332 331 330 330 331 328 329 329 331 331 331 331 330 329 329 329 328 327 328 328 328 328 328 328 326 326 326
336 337 337 336 336 337 336 335 335 334 335 334 333 333 332 331 331 330 330 330 329 329 329 329 331 330 329 330 329 328 328 327 327 327 328 327 326 327 328 329 328 327 326
335 337 336 335 336 335 335 335 335 334 335 333 332 333 331 331 330 330 330 329 329 330 328 329 331 330 330 329 330 330 328 328 327 327 326 326 327 329 330 329 328 326 326
337 336 336 336 335 335 334 335 335 334 334 332 332 331 331 330 330 330 329 328 326 327 328 328 330 330 330 331 330 330 330 326 323 327 326 326 329 330 327 325 325 325 324
337 336 336 335 334 334 334 334 335 333 333 334 331 330 331 331 331 329 327 327 327 327 327 329 331 330 331 331 331 332 330 328 325 326 328 327 329 329 326 324 324 324 324
336 335 335 334 333 333 333 333 333 332 333 331 331 332 332 331 330 329 328 326 326 327 330 331 331 331 330 329 331 331 329 327 327 329 329 328 328 328 327 325 323 323 323
336 335 334 334 333 332 332 332 331 331 333 332 332 332 332 330 329 328 328 328 328 326 330 329 330 329 325 329 331 331 328 327 328 329 328 329 328 327 326 324 324 323 323
335 334 334 333 333 332 331 330 330 330 332 332 333 332 330 329 327 327 327 327 327 328 330 330 328 325 324 330 331 331 330 329 328 328 328 326 327 326 325 324 324 323 323
334 334 333 332 332 331 330 330 329 331 332 333 335 331 328 327 327 327 326 328 328 329 330 329 327 326 326 330 331 330 330 330 330 326 327 325 325 324 324 324 323 323 323
333 332 333 332 329 328 328 328 330 332 332 332 334 331 329 328 328 327 327 328 328 329 330 330 328 325 327 330 331 330 330 329 328 326 326 325 324 323 324 323 323 322 323
329 331 332 330 328 326 328 327 328 330 332 332 332 330 329 329 330 328 329 329 329 329 329 330 329 325 329 331 331 329 331 329 328 326 325 325 324 324 324 323 323 322 322
330 331 330 328 326 326 327 326 326 327 331 331 330 330 329 330 329 329 330 330 331 330 330 330 328 326 329 330 331 331 330 328 328 327 325 325 324 324 324 324 323 323 323
331 331 328 326 325 326 326 324 325 327 330 330 330 329 330 329 329 330 330 331 331 331 331 329 327 327 329 331 331 331 330 328 327 327 326 325 325 324 324 324 324 323 323
331 330 327 325 325 326 326 324 326 326 330 329 329 330 331 330 330 330 332 331 331 330 329 329 327 327 329 330 331 331 329 328 328 327 326 326 325 325 324 324 324 324 323
332 330 327 326 324 325 326 326 326 326 330 330 330 331 331 332 332 332 331 331 330 329 329 329 327 327 329 330 330 330 329 328 327 327 326 326 325 325 325 325 324 324 323
329 331 328 326 324 325 326 326 325 327 330 331 331 332 332 331 331 331 331 330 330 330 329 329 328 327 328 329 329 330 329 327 327 327 327 326 325 325 324 324 324 324 324
324 329 329 327 325 324 325 327 325 326 330 330 331 331 331 329 329 329 330 330 331 331 331 330 328 328 328 329 329 329 328 327 328 327 326 325 325 324 323 323 324 324 324
Wind_Speed
17 21 24 22 18 17 19 20 24 31 32 32 31 30 31 29 29 26 27 24 28 28 24 17 15 18 17 17 17 15 15 17 19 10 11 12 10 11 15 15 17 18 18
9 10 15 20 19 22 24 21 26 31 35 31 30 26 32 31 30 25 21 22 25 25 20 16 15 14 13 13 13 11 13 13 11 6 3 2 4 17 19 17 17 19 17
11 10 10 19 16 18 21 23 27 29 31 32 29 24 27 25 19 21 20 24 24 22 18 14 11 10 11 11 10 10 12 10 9 13 4 2 3 1 8 19 20 16 16
9 10 12 7 16 19 20 22 23 27 27 30 33 33 22 20 19 21 20 24 23 19 13 11 9 9 9 9 8 8 11 10 9 8 16 4 3 2 1 5 18 17 13
11 11 10 9 19 25 25 24 25 26 30 30 30 30 27 21 20 18 19 21 18 13 12 10 7 7 8 8 8 9 10 12 12 13 6 14 6 3 2 2 1 10 10
10 8 4 15 18 27 28 29 30 30 29 26 27 27 25 20 19 18 21 19 16 12 9 8 8 7 6 8 8 7 9 10 12 13 14 9 5 5 4 2 1 4 5
4 7 11 12 14 20 26 29 31 29 26 25 24 23 21 21 24 24 23 19 15 13 10 9 9 10 8 6 6 7 8 8 11 13 17 18 15 11 12 5 2 3 2
6 7 7 9 15 20 23 26 29 28 28 26 24 22 22 22 21 19 18 17 13 8 7 8 7 7 7 7 8 8 8 7 9 8 14 16 18 16 16 8 7 3 2
9 11 10 10 16 17 24 28 29 30 28 28 25 21 19 19 18 16 15 12 8 7 10 8 6 6 7 8 10 10 10 8 6 8 12 14 15 17 20 17 17 11 3
11 11 11 11 16 21 27 29 29 30 28 25 21 21 19 17 14 11 11 8 9 11 9 7 5 7 6 6 7 8 10 10 9 8 8 12 12 14 16 17 20 18 12
13 12 11 13 18 22 25 27 28 27 26 23 21 20 17 13 12 10 11 12 12 10 9 5 4 3 2 3 4 6 7 8 6 6 7 9 8 9 10 12 21 21 21
12 13 12 12 17 18 24 26 25 25 25 22 21 20 19 17 15 12 12 11 11 11 7 6 6 5 3 2 3 8 7 7 7 7 8 6 5 8 10 15 18 25 21
15 14 13 12 11 17 20 24 25 25 25 21 18 19 17 17 13 13 13 12 9 10 7 5 6 5 2 1 5 5 5 10 5 6 7 8 9 10 15 19 22 25 26
17 14 13 12 13 18 19 23 26 26 24 22 20 18 19 16 14 13 10 11 10 7 4 6 8 5 3 3 4 4 5 13 9 5 6 10 13 16 22 23 24 28 28
17 15 14 13 11 16 19 25 28 26 24 20 21 20 17 14 15 14 11 10 9 6 6 10 10 6 3 5 5 2 8 13 9 7 8 14 13 13 21 30 27 31 29
17 16 16 15 13 17 20 25 27 25 22 20 19 21 17 16 16 12 13 10 9 7 10 12 11 5 4 4 4 5 10 10 12 12 18 21 19 20 22 28 34 33 35
17 17 17 15 15 21 23 25 26 24 22 21 20 21 20 17 14 14 11 9 7 9 11 13 9 5 4 4 5 7 9 10 12 16 18 20 20 21 23 28 30 33 29
17 16 15 14 22 24 27 30 28 24 22 21 20 24 20 18 15 13 12 11 10 9 11 11 8 4 4 4 6 9 11 13 14 17 17 20 20 22 27 28 30 31 29
17 16 22 23 24 27 31 30 28 26 24 20 22 22 20 19 16 15 15 12 11 11 12 11 8 5 6 5 9 12 13 14 16 18 18 23 27 28 30 32 29 27 24
9 14 23 24 26 25 32 28 26 25 21 21 25 25 23 20 17 14 13 10 10 10 12 11 7 6 8 8 10 13 15 17 18 17 19 22 27 28 29 31 31 26 24
12 21 24 24 26 31 32 25 28 24 25 26 29 26 23 20 17 14 12 9 8 11 13 13 8 8 8 7 11 14 16 20 20 19 21 24 25 26 26 29 33 30 29
15 23 19 20 26 32 30 23 24 25 25 26 31 28 25 23 20 17 13 11 11 13 15 14 10 8 7 10 12 14 14 18 22 22 23 26 24 24 26 25 28 28 25
11 20 21 19 23 31 31 23 29 24 29 29 31 29 25 23 20 17 15 16 16 17 15 14 13 11 9 13 13 15 16 15 20 21 22 24 23 22 22 22 26 26 25
4 13 19 17 17 27 31 34 29 23 32 30 30 30 27 23 19 17 17 18 18 17 17 15 13 13 13 14 15 17 17 15 20 22 22 22 21 20 22 22 23 27 27
13 14 14 16 19 27 31 32 29 25 29 31 31 30 28 25 22 18 20 19 18 20 21 19 18 19 16 15 15 20 20 23 25 24 22 22 22 20 24 25 25 27 29
20 10 13 19 22 26 31 31 31 27 31 24 26 27 29 25 23 20 16 15 16 19 19 16 18 18 17 18 18 19 18 24 26 26 26 24 21 22 21 19 26 24 26
Wind_Direction
252 258 259 257 240 217 212 224 208 208 202 191 178 182 183 190 198 189 186 189 191 203 201 211 222 229 232 243 265 261 257 254 247 234 236 245 240 238 228 228 234 227 225
257 255 243 227 219 220 222 214 208 203 200 186 181 170 166 167 170 176 183 190 202 195 204 213 217 225 238 257 271 262 261 262 235 182 137 211 251 243 239 240 236 231 231
249 255 243 225 219 209 209 202 203 198 189 182 171 163 156 152 155 163 168 188 194 194 196 208 227 235 248 255 262 250 235 227 211 207 167 143 212 149 233 232 229 230 226
249 246 240 214 196 189 188 185 182 179 175 168 162 154 154 158 167 172 177 176 185 188 202 230 230 248 251 247 244 239 234 223 211 219 229 235 110 155 326 239 225 224 245
255 256 245 195 184 167 161 160 162 160 162 158 163 164 167 167 178 186 182 176 175 198 214 216 225 242 238 232 236 232 229 226 225 214 201 226 210 194 143 240 175 208 232
264 250 172 140 138 142 140 148 150 153 156 157 162 168 171 174 165 169 164 166 177 195 202 217 223 226 232 234 239 241 239 235 238 235 226 207 177 187 182 177 188 151 170
218 147 132 132 128 127 133 141 147 148 146 149 154 155 154 166 164 160 159 163 179 205 208 211 218 228 234 235 236 242 237 236 235 233 231 226 226 205 203 169 146 119 126
119 116 115 119 124 126 129 135 137 142 146 140 135 131 132 142 146 156 167 178 189 204 192 194 203 222 234 233 225 235 233 231 244 240 227 224 222 221 193 173 149 98 92
135 128 116 117 122 122 133 138 134 142 139 131 131 129 133 138 140 147 161 172 189 184 170 184 199 210 230 235 224 229 234 234 236 225 223 218 212 216 218 219 183 145 138
130 128 126 126 120 132 140 143 138 137 136 136 131 127 127 130 136 145 154 167 167 162 178 188 206 223 227 232 244 233 235 240 233 212 212 204 199 204 217 222 202 179 132
146 136 132 127 129 136 141 143 140 139 140 139 137 138 136 139 144 148 159 165 165 179 186 182 209 221 234 219 218 231 236 208 209 208 180 170 176 197 201 198 186 168 153
137 132 132 132 137 136 144 147 146 147 147 149 152 158 155 149 153 160 163 166 174 191 201 225 235 231 230 245 254 241 212 150 163 179 181 179 189 186 183 182 168 161 154
136 135 135 141 145 144 147 154 157 156 158 164 161 153 157 155 162 163 164 171 184 207 229 245 186 209 213 279 295 284 214 180 183 170 197 188 175 158 151 142 133 138 134
142 142 144 145 150 149 153 160 166 166 169 174 162 163 163 165 166 166 166 179 192 219 245 182 161 144 93 33 349 291 189 168 171 179 184 174 163 154 136 134 136 131 128
148 148 149 149 150 150 157 166 171 171 179 174 167 164 162 165 165 170 167 164 193 203 164 162 152 124 83 25 7 61 129 145 141 143 153 170 164 155 156 143 137 136 132
153 154 152 153 157 161 164 172 177 177 183 174 164 158 157 159 169 173 171 185 204 200 169 160 146 122 89 48 44 95 130 139 138 124 119 132 137 145 153 154 152 147 141
160 159 160 160 164 170 169 175 179 176 177 163 163 156 158 165 171 168 174 192 183 175 163 161 146 128 97 64 92 112 130 143 145 134 135 138 141 149 156 151 147 148 143
165 162 162 162 168 172 175 176 173 170 161 157 160 163 161 167 167 168 178 174 178 177 166 160 143 135 120 86 125 127 123 137 138 144 145 141 140 146 139 134 130 140 146
168 166 164 164 166 170 175 164 165 166 160 161 167 169 163 170 172 181 180 179 181 174 172 168 155 150 142 122 140 138 129 126 133 141 143 138 136 136 132 125 120 122 123
150 160 161 159 160 169 168 155 160 164 162 163 170 166 169 176 177 173 171 183 196 186 177 170 169 160 151 139 149 151 143 128 129 139 141 142 141 143 144 132 129 124 136
156 155 155 159 165 166 161 159 164 165 174 170 169 171 174 175 173 169 178 181 185 191 173 161 163 160 157 148 159 165 154 145 141 144 145 146 148 151 151 144 149 146 154
150 153 151 156 160 165 162 162 171 178 171 171 169 173 177 178 174 169 167 175 168 158 158 154 153 158 147 148 155 169 163 156 146 151 153 153 153 157 156 156 157 152 156
147 150 148 151 165 166 169 166 178 175 169 168 171 175 172 164 166 166 168 166 168 163 164 164 160 160 147 145 155 164 163 157 153 151 154 156 157 160 163 159 162 162 160
87 141 145 155 168 174 174 177 178 170 167 166 170 173 171 167 169 175 176 172 174 173 174 176 171 164 160 157 159 163 160 157 151 150 150 157 156 162 169 167 166 169 171
31 159 157 165 175 177 179 178 181 169 163 164 166 167 171 171 169 174 184 188 194 194 185 190 181 173 172 173 168 164 165 160 153 153 154 158 163 161 164 170 172 180 182
25 52 164 164 176 183 181 179 185 173 165 161 163 167 172 174 173 177 187 204 211 211 214 206 194 189 180 169 169 172 170 165 160 158 160 164 169 172 174 173 179 185 188